Hauptseite
METAR-TAF:

METAR-TAF

Flughäfen :

Bohrplattform

Goeree Le, Niederlande

Breite: 51-55-33N, Länge: 3-40-12E, Höhe: 19 m

Beobachtung

Neuester Wetterbericht von vor 23 Minuten, um 18:55 UTC
Wind 24 kt aus West/Südwest
Temperatur 20°C
Luftfeuchtigkeit 83%
Luftdruck 1017 hPa
Sichtweite 10 km oder mehr

METAR: EHSC 191855Z AUTO 24024KT 9999 ///////// 20/17 Q1017 W21/H19

Zeit: 21:18 (19:18 UTC)


TAF: fehlend

Wetterbeobachtungen und Prognosen von mehr als 4000 Flughäfen (METAR und TAF Bericht).

Die verfügbaren Stationen werden durch gelbe und rote Markierungen auf der Karte dargestellt.

Führen Sie die Maus auf sie, um den Namen der Station zu sehen.

Darauf klicken, um die Beobachtung von Wetterbeobachtungen und Prognosen zu sehen.

Um die Karte zu ändern : klicken Sie auf den grünen Tasten mit einem schwarzen Kreuz Zum Vergrößern, auf den grünen Button mit einem Gedankenstrich zu verkleinern, oder auf die grünen Pfeile für benachbarte Karten.


METAR-TAF: